Terug naar catalogus

STARLINK-2487

ActiefCommunicatieVLEO
NORAD 48144·PAYLOAD·🇺🇸 United States

Gelanceerd Apr 7, 2021 vanaf Cape Canaveral Space Force Station

Loading…

Volgende Passages (komende 24 uur)

TLE

VersSource: CelesTrak SupGP

Epoch: Sep 15, 2026, 02:35 UTC

1 48144C 21027BE  26258.10812500  .00051559  00000+0  16577-2 0  2583
2 48144  53.1600 350.9870 0001165  87.9871 205.4844 15.31682273    19

Volg STARLINK-2487 in realtime met AllMySat

Download on the App Store